EW4676 Weather Reports


Display with metric or nautical units.
time (UTC)temp
F
wind
direction
speed
MPH
gust
MPH
rain 1hr
in
rain 24hr
in
rain mn
in
humidity
%
barometer
mb
20260509055323 70 3 2.0 7.0 0.00 0.00 0.00 83 1010.8
20260509054814 70 24 2.0 7.0 0.00 0.00 0.00 83 1011.0
20260509054304 70 11 3.0 7.0 0.00 0.00 0.00 82 1011.1
20260509053754 70 357 3.0 7.0 0.00 0.00 0.00 82 1011.0
20260509053243 70 28 3.0 8.0 0.00 0.00 0.00 81 1010.7
20260509052734 70 26 2.0 6.0 0.00 0.00 0.00 81 1010.7
20260509052223 70 82 0.0 0.0 0.00 0.00 0.00 81 1010.2
20260509051713 70 161 0.0 0.0 0.00 0.00 0.00 81 1009.9
20260509051204 70 164 0.0 0.0 0.00 0.00 0.00 80 1009.9
20260509050653 70 162 0.0 0.0 0.00 0.00 0.00 80 1010.0
20260509050143 70 160 0.0 2.0 0.00 0.00 0.00 80 1009.9
20260509045628 71 161 1.0 3.0 0.00 0.00 0.00 80 1009.8
20260509045118 71 161 1.0 3.0 0.00 0.00 0.00 80 1009.8
20260509044608 71 173 1.0 4.0 0.00 0.00 0.00 80 1009.7
20260509044059 71 178 1.0 4.0 0.00 0.00 0.00 80 1009.8
20260509043548 71 164 2.0 3.0 0.00 0.00 0.00 80 1009.8
20260509043038 71 162 2.0 7.0 0.00 0.00 0.00 80 1009.9
20260509042528 71 163 3.0 7.0 0.00 0.00 0.00 80 1010.0
20260509042017 71 158 1.0 5.0 0.00 0.00 0.00 79 1010.0
20260509041508 71 105 0.0 3.0 0.00 0.00 0.00 79 1010.2
20260509041459 71 120 0.0 0.0 0.00 0.00 0.00 79 1010.5
20260509040448 71 119 0.0 0.0 0.00 0.00 0.00 79 1010.4
20260509040439 72 118 0.0 4.0 0.00 0.00 0.00 78 1010.2
20260509035929 72 118 0.0 4.0 0.00 0.00 0.00 78 1010.2
20260509034918 72 118 1.0 6.0 0.00 0.00 0.00 78 1010.0
20260509034408 72 137 2.0 8.0 0.00 0.00 0.00 78 1009.9
20260509034400 72 130 3.0 8.0 0.00 0.00 0.00 78 1009.6
20260509033348 72 141 1.0 8.0 0.00 0.00 0.00 78 1009.5
20260509033339 72 122 2.0 7.0 0.00 0.00 0.00 78 1009.4
20260509032328 72 109 3.0 10.0 0.00 0.00 0.00 77 1009.3
20260509032319 72 143 3.0 10.0 0.00 0.00 0.00 77 1009.2
20260509031808 72 160 4.0 9.0 0.00 0.00 0.00 77 1009.0
20260509030758 72 136 3.0 9.0 0.00 0.00 0.00 77 1009.0
20260509030248 72 152 4.0 8.0 0.00 0.00 0.00 77 1009.1
20260509030240 72 155 4.0 10.0 0.00 0.00 0.00 77 1009.0
20260509025228 73 153 3.0 10.0 0.00 0.00 0.00 77 1008.9
20260509024718 73 138 3.0 8.0 0.00 0.00 0.00 77 1008.8
20260509024208 73 125 3.0 7.0 0.00 0.00 0.00 77 1008.6
20260509023651 73 111 4.0 10.0 0.00 0.00 0.00 77 1008.5
20260509023132 73 157 5.0 10.0 0.00 0.00 0.00 76 1008.4
20260509022623 73 130 4.0 9.0 0.00 0.00 0.00 76 1008.5
20260509022116 73 163 4.0 7.0 0.00 0.00 0.00 76 1008.6
20260509021610 73 141 3.0 7.0 0.00 0.00 0.00 76 1008.5
20260509021102 73 145 3.0 7.0 0.00 0.00 0.00 76 1008.6
20260509020552 73 135 2.0 7.0 0.00 0.00 0.00 76 1008.6
20260509020042 73 141 2.0 5.0 0.00 0.00 0.00 76 1008.6
20260509015532 73 141 2.0 5.0 0.00 0.00 0.00 76 1008.7
20260509015023 73 138 1.0 5.0 0.00 0.00 0.00 76 1008.7
20260509014514 73 115 0.0 4.0 0.00 0.00 0.00 76 1008.7
20260509014012 73 116 1.0 4.0 0.00 0.00 0.00 75 1008.6
20260509013508 73 96 1.0 4.0 0.00 0.00 0.00 75 1008.6
20260509013007 73 130 1.0 4.0 0.00 0.00 0.00 75 1008.6
20260509012507 73 139 1.0 4.0 0.00 0.00 0.00 75 1008.5
20260509012005 73 138 1.0 5.0 0.00 0.00 0.00 75 1008.5
20260509011510 73 173 1.0 3.0 0.00 0.00 0.00 75 1008.3
20260509011504 73 142 1.0 5.0 0.00 0.00 0.00 75 1008.4
20260509010502 73 157 1.0 3.0 0.00 0.00 0.00 74 1008.3
20260509010004 73 155 2.0 4.0 0.00 0.00 0.00 74 1008.2
20260509005456 73 149 3.0 6.0 0.00 0.00 0.00 74 1008.1
20260509004950 73 144 2.0 6.0 0.00 0.00 0.00 74 1008.0
20260509004441 73 147 2.0 5.0 0.00 0.00 0.00 74 1007.9
20260509003936 73 146 2.0 5.0 0.00 0.00 0.00 74 1007.9
20260509003436 73 141 3.0 7.0 0.00 0.00 0.00 73 1007.7
20260509003432 73 145 2.0 7.0 0.00 0.00 0.00 74 1007.8
20260509002425 74 159 2.0 6.0 0.00 0.00 0.00 73 1007.8
20260509001922 74 126 2.0 8.0 0.00 0.00 0.00 73 1007.9
20260509001422 74 186 3.0 6.0 0.00 0.00 0.00 73 1007.9
20260509001417 74 157 3.0 8.0 0.00 0.00 0.00 73 1008.0
20260509000913 74 132 3.0 6.0 0.00 0.00 0.00 73 1007.9
20260509000524 74 147 3.0 7.0 0.00 0.00 0.00 73 1008.1
20260508235907 73 155 2.0 7.0 0.00 0.00 0.00 73 1008.2
20260508235358 73 120 0.0 3.0 0.00 0.00 0.00 73 1008.2
20260508234349 73 152 1.0 4.0 0.00 0.00 0.00 73 1008.3
20260508233842 73 153 1.0 4.0 0.00 0.00 0.00 72 1008.2
20260508233333 73 158 2.0 6.0 0.00 0.00 0.00 72 1008.3
20260508232827 73 153 3.0 9.0 0.00 0.00 0.00 73 1008.3
20260508232319 73 181 2.0 9.0 0.00 0.00 0.00 72 1008.2
20260508231810 73 159 2.0 6.0 0.00 0.00 0.00 72 1008.3
20260508231803 73 141 3.0 5.0 0.00 0.00 0.00 72 1008.3
20260508231253 73 124 4.0 9.0 0.00 0.00 0.00 72 1008.2
20260508230244 73 185 4.0 9.0 0.00 0.00 0.00 71 1008.2
20260508225725 73 161 4.0 10.0 0.00 0.00 0.00 71 1008.2
20260508225215 74 164 4.0 10.0 0.00 0.00 0.00 70 1008.2
20260508224705 74 180 4.0 9.0 0.00 0.00 0.00 71 1008.2
20260508224155 74 186 5.0 14.0 0.00 0.00 0.00 71 1008.2
20260508224147 74 170 5.0 11.0 0.00 0.00 0.00 71 1008.2
20260508223135 73 192 5.0 12.0 0.00 0.00 0.00 71 1008.2
20260508222625 73 137 5.0 12.0 0.00 0.00 0.00 70 1008.3
20260508222125 74 197 4.0 11.0 0.00 0.00 0.00 71 1008.3
20260508221615 73 139 5.0 11.0 0.00 0.00 0.00 70 1008.4
20260508221106 73 168 5.0 11.0 0.00 0.00 0.00 70 1008.4
20260508220555 73 156 5.0 11.0 0.00 0.00 0.00 70 1008.5
20260508220044 73 151 5.0 12.0 0.00 0.00 0.00 70 1008.5
20260508215535 72 147 5.0 13.0 0.00 0.00 0.00 70 1008.6
20260508215026 73 142 5.0 13.0 0.00 0.00 0.00 68 1008.7
20260508214525 73 139 5.0 11.0 0.00 0.00 0.00 67 1008.8
20260508214015 73 161 4.0 11.0 0.00 0.00 0.00 69 1008.8
20260508213505 72 144 3.0 8.0 0.00 0.00 0.00 72 1008.8
20260508212955 71 154 4.0 10.0 0.00 0.00 0.00 72 1009.0
20260508212445 71 232 5.0 10.0 0.00 0.00 0.00 72 1009.2
20260508211935 72 232 5.0 11.0 0.00 0.00 0.00 70 1009.3
20260508211425 72 202 5.0 11.0 0.00 0.00 0.00 69 1009.3
20260508210916 73 197 4.0 10.0 0.00 0.00 0.00 69 1009.4
20260508210455 72 151 3.0 9.0 0.00 0.00 0.00 69 1009.5
20260508205954 71 193 3.0 9.0 0.00 0.00 0.00 71 1009.4
20260508204838 70 144 2.0 8.0 0.00 0.00 0.00 74 1009.3
20260508204327 70 42 4.0 11.0 0.00 0.00 0.00 74 1009.4
20260508203817 70 219 5.0 11.0 0.00 0.00 0.00 72 1010.1
20260508203307 70 87 4.0 10.0 0.00 0.00 0.00 71 1008.2
20260508202757 71 104 2.0 9.0 0.00 0.00 0.00 70 1009.5
20260508202748 71 159 2.0 4.0 0.00 0.00 0.00 69 1010.0
20260508201737 71 146 2.0 10.0 0.00 0.00 0.00 68 1010.2
20260508201227 71 132 3.0 10.0 0.00 0.00 0.00 67 1010.1
20260508200717 71 177 4.0 10.0 0.00 0.00 0.00 66 1010.7
20260508200208 71 175 4.0 10.0 0.00 0.00 0.00 65 1011.0
20260508195655 72 209 3.0 9.0 0.00 0.00 0.00 65 1011.1
20260508195155 72 155 3.0 13.0 0.00 0.00 0.00 66 1011.0
20260508194646 72 242 4.0 13.0 0.00 0.00 0.00 66 1011.0
20260508194147 72 247 4.0 8.0 0.00 0.00 0.00 65 1010.6
20260508193637 72 207 4.0 11.0 0.00 0.00 0.00 65 1010.7
20260508193629 72 179 4.0 11.0 0.00 0.00 0.00 65 1010.6
20260508193117 73 151 5.0 10.0 0.00 0.00 0.00 65 1010.6
20260508192608 73 188 5.0 10.0 0.00 0.00 0.00 64 1010.6
20260508191557 73 160 4.0 13.0 0.00 0.00 0.00 64 1010.7
20260508191046 73 245 5.0 13.0 0.00 0.00 0.00 65 1011.0
20260508190529 73 192 5.0 11.0 0.00 0.00 0.00 65 1011.0
20260508190019 73 186 5.0 13.0 0.00 0.00 0.00 64 1011.1
20260508190010 73 180 6.0 11.0 0.00 0.00 0.00 64 1011.1
20260508185000 73 134 5.0 12.0 0.00 0.00 0.00 64 1011.1
20260508184449 73 182 5.0 12.0 0.00 0.00 0.00 64 1011.2
20260508183939 73 167 5.0 13.0 0.00 0.00 0.00 64 1011.2
20260508183429 73 168 5.0 13.0 0.00 0.00 0.00 64 1011.3
20260508182919 73 184 5.0 11.0 0.00 0.00 0.00 64 1011.4
20260508182409 73 134 5.0 11.0 0.00 0.00 0.00 62 1011.4
20260508181900 75 110 4.0 11.0 0.00 0.00 0.00 62 1011.5
20260508181349 75 173 3.0 9.0 0.00 0.00 0.00 62 1011.5
20260508180839 75 186 4.0 10.0 0.00 0.00 0.00 63 1011.5
20260508180329 74 120 4.0 10.0 0.00 0.00 0.00 63 1011.4
20260508175819 74 124 2.0 7.0 0.00 0.00 0.00 62 1011.5
20260508175309 74 84 3.0 9.0 0.00 0.00 0.00 64 1011.6
20260508174809 73 145 4.0 9.0 0.00 0.00 0.00 65 1011.9
20260508174259 73 135 4.0 12.0 0.00 0.00 0.00 64 1012.0
20260508173751 72 151 5.0 12.0 0.00 0.00 0.00 63 1012.1
20260508173233 71 103 5.0 10.0 0.00 0.00 0.00 65 1012.2
20260508172723 71 133 4.0 8.0 0.00 0.00 0.00 66 1012.3
20260508172214 71 130 3.0 7.0 0.00 0.00 0.00 65 1012.4
20260508171655 71 180 4.0 8.0 0.00 0.00 0.00 66 1012.5
20260508171146 71 176 4.0 8.0 0.00 0.00 0.00 65 1012.5
20260508170635 71 128 3.0 8.0 0.00 0.00 0.00 64 1012.5
20260508170126 72 201 3.0 9.0 0.00 0.00 0.00 64 1012.7
20260508165615 72 229 4.0 9.0 0.00 0.00 0.00 65 1012.7
20260508165608 71 143 5.0 11.0 0.00 0.00 0.00 66 1012.7
20260508164557 71 156 4.0 11.0 0.00 0.00 0.00 65 1012.8
20260508164548 70 99 4.0 9.0 0.00 0.00 0.00 64 1012.8
20260508163537 70 105 2.0 8.0 0.00 0.00 0.00 63 1012.8
20260508163030 70 147 2.0 9.0 0.00 0.00 0.00 66 1012.9
20260508162524 69 134 3.0 9.0 0.00 0.00 0.00 66 1013.1
20260508162010 68 147 4.0 10.0 0.00 0.00 0.00 65 1013.2
20260508161949 67 161 4.0 9.0 0.00 0.00 0.00 68 1013.2
20260508161554 68 105 4.0 10.0 0.00 0.00 0.00 68 1013.2
20260508160439 67 159 4.0 9.0 0.00 0.00 0.00 67 1013.3
20260508155934 67 189 4.0 8.0 0.00 0.00 0.00 68 1013.6
20260508155429 67 120 4.0 11.0 0.00 0.00 0.00 68 1013.7
20260508154930 67 153 3.0 8.0 0.00 0.00 0.00 68 1013.9
20260508154924 67 130 3.0 11.0 0.00 0.00 0.00 68 1013.8
20260508154419 67 147 3.0 9.0 0.00 0.00 0.00 69 1013.8
20260508153409 67 226 3.0 10.0 0.00 0.00 0.00 68 1013.9
20260508153401 66 176 3.0 10.0 0.00 0.00 0.00 69 1014.0
20260508152854 66 174 4.0 9.0 0.00 0.00 0.00 68 1014.0
20260508151857 66 149 4.0 8.0 0.00 0.00 0.00 68 1013.9
20260508151851 66 140 4.0 8.0 0.00 0.00 0.00 68 1014.0
20260508150853 66 152 3.0 7.0 0.00 0.00 0.00 68 1013.9
20260508150355 66 147 3.0 8.0 0.00 0.00 0.00 67 1014.0
20260508150351 66 183 3.0 7.0 0.00 0.00 0.00 67 1014.0
20260508145848 66 136 3.0 8.0 0.00 0.00 0.00 67 1014.0
20260508144841 66 159 3.0 7.0 0.00 0.00 0.00 67 1014.0
20260508144335 66 187 4.0 7.0 0.00 0.00 0.00 67 1014.0
20260508143828 66 134 4.0 9.0 0.00 0.00 0.00 66 1013.9
20260508143325 67 147 2.0 9.0 0.00 0.00 0.00 66 1014.0
20260508142828 67 185 2.0 8.0 0.00 0.00 0.00 67 1014.1
20260508142323 67 166 3.0 8.0 0.00 0.00 0.00 67 1014.1
20260508141819 66 141 3.0 8.0 0.00 0.00 0.00 67 1014.1
20260508141311 66 179 3.0 8.0 0.00 0.00 0.00 67 1014.2
20260508141302 65 130 4.0 8.0 0.00 0.00 0.00 67 1014.3
20260508140753 66 120 2.0 8.0 0.00 0.00 0.00 67 1014.3
20260508135740 66 80 1.0 6.0 0.00 0.00 0.00 67 1014.4
20260508135230 65 168 1.0 5.0 0.00 0.00 0.00 69 1014.4
20260508134723 65 164 2.0 6.0 0.00 0.00 0.00 69 1014.3
20260508134220 64 143 3.0 9.0 0.00 0.00 0.00 69 1014.2
20260508133704 64 141 3.0 8.0 0.00 0.00 0.00 69 1014.1
20260508133154 64 60 4.0 9.0 0.00 0.00 0.00 71 1014.1
20260508132644 63 151 3.0 9.0 0.00 0.00 0.00 72 1014.0
20260508132132 63 145 3.0 6.0 0.00 0.00 0.00 75 1014.0
20260508131623 61 138 4.0 7.0 0.00 0.00 0.00 78 1014.1
20260508131618 61 139 3.0 7.0 0.00 0.00 0.00 80 1014.2
20260508130607 61 159 2.0 6.0 0.00 0.00 0.00 81 1014.2
20260508130057 60 154 1.0 3.0 0.00 0.00 0.00 81 1014.4
20260508125546 60 147 1.0 4.0 0.00 0.00 0.00 82 1014.4
20260508125036 59 94 0.0 4.0 0.00 0.00 0.00 82 1014.4
20260508124527 59 85 0.0 0.0 0.00 0.00 0.00 82 1014.4
20260508124016 59 84 0.0 0.0 0.00 0.00 0.00 82 1014.3
20260508123507 59 84 0.0 0.0 0.00 0.00 0.00 81 1014.4
20260508123457 59 84 0.0 0.0 0.00 0.00 0.00 81 1014.4
20260508122446 59 88 0.0 0.0 0.00 0.00 0.00 81 1014.5
20260508121936 59 95 0.0 0.0 0.00 0.00 0.00 81 1014.6
20260508121426 59 95 0.0 0.0 0.00 0.00 0.00 81 1014.5
20260508120916 59 137 0.0 0.0 0.00 0.00 0.00 81 1014.3
20260508120358 59 136 0.0 0.0 0.00 0.00 0.00 81 1014.3
20260508115848 59 136 0.0 0.0 0.00 0.00 0.00 81 1014.2
20260508115338 59 137 0.0 0.0 0.00 0.00 0.00 81 1014.2
20260508114828 59 136 0.0 2.0 0.00 0.00 0.00 81 1014.2
20260508114314 59 136 1.0 3.0 0.00 0.00 0.00 80 1014.2
20260508113804 59 136 0.0 3.0 0.00 0.00 0.00 80 1014.3
20260508113254 59 136 0.0 1.0 0.00 0.00 0.00 80 1014.4
20260508112744 59 135 1.0 3.0 0.00 0.00 0.00 80 1014.3
20260508112228 59 135 2.0 4.0 0.00 0.00 0.00 80 1014.3
20260508111709 59 130 2.0 4.0 0.00 0.00 0.00 80 1014.3
20260508111700 59 109 0.0 3.0 0.00 0.00 0.00 80 1014.4
20260508110650 60 99 0.0 0.0 0.00 0.00 0.00 80 1014.6
20260508110140 60 97 0.0 2.0 0.00 0.00 0.00 80 1014.6
20260508105622 60 100 1.0 2.0 0.00 0.00 0.00 79 1014.6
20260508105112 60 154 0.0 2.0 0.00 0.00 0.00 79 1014.6
20260508104602 60 155 0.0 3.0 0.00 0.00 0.00 79 1014.3
20260508104052 60 152 1.0 3.0 0.00 0.00 0.00 79 1014.3
20260508103542 60 129 1.0 4.0 0.00 0.00 0.00 79 1014.2
20260508103032 60 126 1.0 4.0 0.00 0.00 0.00 79 1014.1
20260508102522 60 130 0.0 2.0 0.00 0.00 0.00 78 1013.9
20260508102012 60 130 1.0 2.0 0.00 0.00 0.00 78 1013.6
20260508101500 60 131 0.0 2.0 0.00 0.00 0.00 78 1013.3
20260508100950 60 130 0.0 2.0 0.00 0.00 0.00 78 1013.3
20260508100439 60 126 0.0 0.0 0.00 0.00 0.00 78 1013.5
20260508095929 60 124 0.0 0.0 0.00 0.00 0.00 78 1013.6
20260508095420 60 125 0.0 0.0 0.00 0.00 0.00 77 1013.7
20260508094910 60 123 0.0 0.0 0.00 0.00 0.00 77 1013.6
20260508094352 60 123 0.0 0.0 0.00 0.00 0.00 77 1013.8
20260508093854 60 123 0.0 0.0 0.00 0.00 0.00 77 1013.8
20260508093344 61 123 0.0 0.0 0.00 0.00 0.00 77 1013.8
20260508092834 61 122 0.0 2.0 0.00 0.00 0.00 76 1013.8
20260508092324 61 122 0.0 2.0 0.00 0.00 0.00 76 1013.7
20260508092316 61 122 1.0 2.0 0.00 0.00 0.00 76 1013.7
20260508091805 61 118 0.0 2.0 0.00 0.00 0.00 76 1013.8
20260508090752 61 118 1.0 4.0 0.00 0.00 0.00 76 1013.9
20260508090242 61 120 1.0 4.0 0.00 0.00 0.00 76 1013.6
20260508085732 61 139 0.0 4.0 0.00 0.00 0.00 76 1013.6
20260508085222 61 145 0.0 4.0 0.00 0.00 0.00 76 1013.9
20260508084710 61 144 1.0 4.0 0.00 0.00 0.00 76 1013.9
20260508084200 61 144 3.0 8.0 0.00 0.00 0.00 76 1013.9
20260508083650 61 162 3.0 8.0 0.00 0.00 0.00 76 1013.7
20260508083141 61 145 1.0 5.0 0.00 0.00 0.00 76 1013.7
20260508082631 61 188 0.0 0.0 0.00 0.00 0.00 76 1013.9
20260508082120 61 189 0.0 0.0 0.00 0.00 0.00 76 1014.0
20260508082103 61 191 0.0 0.0 0.00 0.00 0.00 75 1014.2
20260508081707 61 190 0.0 0.0 0.00 0.00 0.00 75 1014.1
20260508081051 62 192 0.0 0.0 0.00 0.00 0.00 75 1014.4
20260508080040 62 192 0.0 0.0 0.00 0.00 0.00 75 1014.6
20260508075530 62 191 0.0 0.0 0.00 0.00 0.00 75 1014.8
20260508075020 62 191 0.0 0.0 0.00 0.00 0.00 75 1015.0
20260508074510 62 189 0.0 0.0 0.00 0.00 0.00 74 1015.0
20260508074501 62 188 0.0 0.0 0.00 0.00 0.00 74 1015.1
20260508073451 62 188 0.0 0.0 0.00 0.00 0.00 74 1015.1
20260508072940 62 188 0.0 0.0 0.00 0.00 0.00 74 1015.0
20260508072432 62 188 0.0 0.0 0.00 0.00 0.00 74 1015.0
20260508071926 62 188 0.0 0.0 0.00 0.00 0.00 74 1014.9
20260508071422 62 179 0.0 0.0 0.00 0.00 0.00 74 1015.0
20260508070916 62 177 0.0 0.0 0.00 0.00 0.00 73 1015.0
20260508070406 62 178 0.0 0.0 0.00 0.00 0.00 73 1014.9
20260508065905 62 178 0.0 0.0 0.00 0.00 0.00 73 1014.9
20260508065401 62 177 0.0 0.0 0.00 0.00 0.00 72 1014.9
20260508065355 62 178 0.0 0.0 0.00 0.00 0.00 72 1014.9
20260508064849 62 177 0.0 0.0 0.00 0.00 0.00 72 1014.7
20260508063853 62 178 0.0 0.0 0.00 0.00 0.00 73 1014.8
20260508063848 62 178 0.0 0.0 0.00 0.00 0.00 72 1015.0
20260508062849 62 179 0.0 0.0 0.00 0.00 0.00 73 1015.0
20260508062845 62 180 0.0 0.0 0.00 0.00 0.00 73 1015.2
20260508061844 62 182 0.0 0.0 0.00 0.00 0.00 73 1015.1
20260508061340 62 186 0.0 0.0 0.00 0.00 0.00 72 1015.2
20260508060834 62 178 0.0 3.0 0.00 0.00 0.00 72 1015.3
20260508060326 62 177 0.0 3.0 0.00 0.00 0.00 72 1015.3
20260508055816 62 176 1.0 3.0 0.00 0.00 0.00 72 1015.4